Regional Weather Roundup
Issued by NWS

Home | Current Version | Previous Version | Graphics & Text | Print | Product List | Glossary On
Versions: 1 2 3 4 5 6 7 8 9 10 11 12 13 14 15 16 17 18 19 20 21 22 23 24 25 26 27 28 29 30 31 32 33 34 35 36 37 38 39 40 41 42 43 44 45 46 47 48 49 50
000
ASUS43 KDMX 270504
RWRIA

WEATHER ROUNDUP FOR IOWA
NATIONAL WEATHER SERVICE DES MOINES IA
  ISSUED BY NWS QUAD CITIES IA IL
1100 PM CST MON JAN 26 2015

NOTE: "FAIR" INDICATES FEW OR NO CLOUDS BELOW 12,000 FEET WITH NO
SIGNIFICANT WEATHER AND/OR OBSTRUCTIONS TO VISIBILITY.

* - THESE STATIONS ARE NOT NWS STATIONS...THUS NOT UNDER NWS
QUALITY CONTROL.  THEY ALSO DO NOT REPORT WEATHER SUCH
AS PRECIPITATION OR FOG.

IAZ001>003-012>014-020>022-031>034-043>046-270600-
   NORTHWEST IOWA

CITY           SKY/WX    TMP DP  RH WIND       PRES   REMARKS
CARROLL *      CLEAR     34  32  93 W8        30.01R WCI  27
CHEROKEE *     CLEAR     33  32  99 N3        30.03R
DENNISON *     PTCLDY    37  36  93 N5        30.01R WCI  34
LE MARS *      PTCLDY    36  34  93 CALM      30.04R
ORANGE CITY *  CLEAR     36  32  87 N7        30.02R WCI  30
SIOUX CITY     PTCLDY    40  34  79 CALM      30.04R
SPENCER        CLEAR     31  28  89 NW7       30.00R WCI  24
$$

IAZ055>058-069>071-079>083-090>094-270600-
   SOUTHWEST IOWA

CITY           SKY/WX    TMP DP  RH WIND       PRES   REMARKS
ATLANTIC *     CLEAR     37  34  87 CALM      30.02R
AUDUBON *      CLEAR     36  30  80 NW5       30.02S WCI  32
CLARINDA *     CLEAR     43  34  70 NW10      30.04R WCI  37
COUNCIL BLFS * CLEAR     41  36  81 NW10      30.02R WCI  35
CRESTON *      CLEAR     36  34  93 NW10      30.00R WCI  28
HARLAN *       PTCLDY    36  36 100 NW5       30.06R WCI  32
LAMONI         CLEAR     35  31  85 NW8       29.98R WCI  29
$$

IAZ047>049-059>061-072>074-084-270600-
   CENTRAL IOWA

CITY           SKY/WX    TMP DP  RH WIND       PRES   REMARKS
AMES           CLOUDY    39  32  76 N14       29.97R WCI  31
ANKENY *       CLOUDY    39  34  81 NW9G15    29.98R WCI  33
BOONE *        CLOUDY    39  36  87 NW8       29.96R WCI  34
CHARITON *     CLOUDY    39  34  81 NW12      29.97R WCI  32
DES MOINES     PTCLDY    37  32  82 NW7       29.99R WCI  32
GRINNELL *     CLOUDY    38  32  80 NW12G22   29.94R WCI  30
KNOXVILLE *    CLOUDY    41  34  75 N9        29.96R WCI  35
MARSHALLTOWN   PTCLDY    36  31  82 NW12      29.94R WCI  28
PELLA *        CLOUDY    40  33  77 N10G17    29.98R WCI  33
PERRY *          N/A     34  32  93 NW7       30.00R WCI  28
$$

IAZ004>006-015-016-023>025-035-036-270600-
   NORTH CENTRAL IOWA

CITY           SKY/WX    TMP DP  RH WIND       PRES   REMARKS
ALGONA *       CLOUDY    36  34  93 NW9       29.99R WCI  29
CLARION *      CLOUDY    36  34  93 N13G20    29.98R WCI  27
ESTHERVILLE    CLOUDY    33  31  92 NW8       29.99R WCI  26
FORT DODGE *   CLEAR     34  28  80 CALM      30.00R
MASON CITY     CLOUDY    35  31  85 NW13      29.96R WCI  26
WEBSTER CITY * CLOUDY    36  36 100 NW12      29.97R WCI  27
IOWA FALLS *   CLOUDY    37  32  82 NW14      29.95S WCI  28
$$

IAZ007>011-017>019-026>030-037>042-050>054-066-270600-
   NORTHEAST IOWA

CITY           SKY/WX    TMP DP  RH WIND       PRES   REMARKS
CEDAR RAPIDS   PTCLDY    35  33  92 NW10      29.90R WCI  27
CHARLES CITY * CLEAR     34  34 100 NW9       29.93R WCI  26
CLINTON *      CLOUDY    27  25  93 N3        29.92R
DECORAH *      CLOUDY    36  34  93 NW9       29.89R WCI  29
DUBUQUE        CLOUDY    29  27  92 CALM      29.88R FOG
MONTICELLO *   CLOUDY    34  34 100 NE6       29.91R WCI  29
OELWEIN *      CLOUDY    36  32  87 NW13      29.92R WCI  27
WATERLOO       CLEAR     35  31  85 NW12      29.93R WCI  27
$$

IAZ064-065-067-068-078-270600-
   EAST CENTRAL IOWA

CITY           SKY/WX    TMP DP  RH WIND       PRES   REMARKS
DAVENPORT      CLOUDY    31  28  89 NE7       29.90R FOG     WCI  24
IOWA CITY      CLOUDY    38  34  85 NW9       29.93R WCI  31
MT. PLEASANT * CLOUDY    39  35  83 NW9       29.93R WCI  33
MUSCATINE *    CLOUDY    39  34  81 NW10      29.92R WCI  32
QUAD CITIES    CLOUDY    32  29  88 CALM      29.89R FOG
$$

IAZ062-063-075>077-085>089-095>099-270600-
   SOUTHEAST IOWA

CITY           SKY/WX    TMP DP  RH WIND       PRES   REMARKS
BURLINGTON     CLOUDY    40  36  86 NW10      29.91R WCI  33
FAIRFIELD *    CLOUDY    37  32  81 NW14G20   29.93R WCI  29
FORT MADISON * CLOUDY    41  37  87 NW8       29.92R WCI  36
KEOKUK *       CLOUDY    43  37  81 NW14G21   29.91R WCI  36
OTTUMWA        MOCLDY    37  33  85 NW14      29.95R WCI  28
WASHINGTON *   CLOUDY    39  39 100 NW13G18   29.92R WCI  32
$$

ABBREVIATIONS USED IN REMARKS
   TC - TEMPERATURES IN CELSIUS
  WCI - WIND CHILL INDEX
   HX - HEAT INDEX
  VSB - VISIBILITY
$$



USA.gov is the U.S. government's official web portal to all federal, state and local government web resources and services.